This demonstration page uses our WeatherBlox Daily Observations layout. Learn more.

Left ArrowRight Arrow

41.12389, -100.76542

Hourly Observations for September 4, 2020

Temp ( °F °C ) Dew Point ( °F °C ) Humidity (%) Winds ( mph kmh ) Pressure ( in mb ) Visibility ( mi km ) Precip ( " mm )
12:53 am 00:53 Clear 53 11.7 42 5.6 66 66 ESE 6 9 30.10 1019 10 16 0.00 0.00
1:53 am 01:53 Clear 53 11.7 42 5.6 66 66 Calm 30.11 1020 10 16 0.00 0.00
2:53 am 02:53 Clear 61 16.1 42 5.6 50 50 S 13 20 30.10 1019 10 16 0.00 0.00
3:53 am 03:53 Clear 61 16.1 41 5 48 48 SSW 7 11 30.10 1019 10 16 0.00 0.00
4:53 am 04:53 Clear 61 16.1 41 5 48 48 SSW 10 17 30.10 1019 10 16 0.00 0.00
5:53 am 05:53 Clear 60 15.6 41 5 50 50 SSW 13 20 30.09 1019 10 16 0.00 0.00
6:53 am 06:53 Clear 60 15.6 41 5 50 50 SSW 12 19 30.10 1019 10 16 0.00 0.00
7:53 am 07:53 Sunny 62 16.7 43 6.1 50 50 SW 12 19 30.13 1020 10 16 0.00 0.00
8:53 am 08:53 Sunny 65 18.3 46 7.8 51 51 WSW 7 11 30.14 1021 10 16 0.00 0.00
9:53 am 09:53 Sunny 72 22.2 47 8.3 41 41 SW 9 15 30.15 1021 10 16 0.00 0.00
10:53 am 10:53 Sunny 78 25.6 47 8.3 33 33 SW 13 20 30.14 1021 10 16 0.00 0.00
11:53 am 11:53 Sunny 81 27.2 48 8.9 32 32 WSW 10 17 30.14 1021 10 16 0.00 0.00
12:53 pm 12:53 Sunny 86 30 50 10 29 29 W 12 19 30.12 1020 10 16 0.00 0.00
1:53 pm 13:53 Sunny 87 30.6 52 11.1 30 30 WNW 10 17 30.11 1020 10 16 0.00 0.00
2:53 pm 14:53 Sunny 88 31.1 51 10.6 28 28 W 5 7 30.09 1019 10 16 0.00 0.00
3:53 pm 15:53 Sunny 90 32.2 47 8.3 23 23 S 5 7 30.07 1018 10 16 0.00 0.00
4:53 pm 16:53 Sunny 91 32.8 48 8.9 23 23 VRB 5 7 30.06 1018 10 16 0.00 0.00
5:53 pm 17:53 Sunny 91 32.8 47 8.3 22 22 NNE 8 13 30.06 1018 10 16 0.00 0.00
6:53 pm 18:53 Sunny 88 31.1 48 8.9 25 25 NNE 7 11 30.07 1018 10 16 0.00 0.00
7:53 pm 19:53 Sunny 82 27.8 48 8.9 31 31 NE 8 13 30.09 1019 10 16 0.00 0.00
8:53 pm 20:53 Clear 71 21.7 48 8.9 44 44 E 3 6 30.13 1020 10 16 0.00 0.00
9:53 pm 21:53 Clear 68 20 49 9.4 51 51 ESE 8 13 30.15 1021 10 16 0.00 0.00
10:53 pm 22:53 Clear 63 17.2 49 9.4 60 60 ESE 6 9 30.16 1021 10 16 0.00 0.00
11:53 pm 23:53 Clear 60 15.6 49 9.4 67 67 ESE 8 13 30.16 1022 10 16 0.00 0.00

Powered by AerisWeather